sat.trackr.live / text

‹ back to catalog

STARLINK-32853

NORAD 62818 · 2025-018N

PAYLOAD ACTIVE UNKNOWN

§ Identity

Operator
Country
US
Launch date
2025-01-24
Launch site
AFWTR
Launch vehicle
Mass (kg)
RCS (m²)

Purposes: comms

External: N2YO · Heavens-Above · Gunter

§ Orbital elements

Epoch: 2026-05-25T04:23:27.634272Z

Period
94.11 min
Inclination
53.1621°
Eccentricity
0.0011295
Mean motion
15.30153004 rev/d
Perigee alt
467.6 km
Apogee alt
483.1 km
Semi-major
6,853.5 km
B*
2.2388e-3
RAAN
314.0222°
Arg perigee
81.3684°
Mean anomaly
278.8596°
Rev number
7,489

§ Raw data

STARLINK-328531 62818U 25018N   26145.18295873  .00066559  00000+0  22388-2 0  99972 62818  53.1621 314.0222 0011295  81.3684 278.8596 15.30153004 74892

JSON: /api/v1/satellites/62818 · /tle

For live sub-satellite position, see the globe view (requires WebGL).

§ Visibility from observer

Set your observer location to see the next 7 days of passes ≥ 10°. The values pass through the URL so the page stays shareable.

No JS? Fill the form by hand. The geolocation button needs JavaScript.